Location: La Bilong�re
(48.1297°N, 1.4584°W)
Time: 00:30:32
(UTC+00:00)

USA 308 - Pass Details

Date: 03 March 2021
Orbit: 568 x 576 km, 54.0° (Epoch: 13 April)

Event Time Altitude Azimuth Distance (km) Brightness Sun altitude
Rises 18:24:53 0° 266° (W) 2,775 9.3 -6.1°
Reaches altitude 10° 18:27:13 10° 273° (W) 1,877 7.3 -6.4°
Maximum altitude 18:31:19 44° 346° (NNW) 803 3.8 -7.1°
Drops below altitude 10° 18:35:24 10° 60° (ENE) 1,876 5.0 -7.8°
Enters shadow 18:35:58 - 62° (ENE) 2,089 5.2 -7.9°
